FW4518 Weather Reports


Display with metric or nautical units.
time (UTC)temp
F
wind
direction
speed
MPH
gust
MPH
rain 1hr
in
rain 24hr
in
rain mn
in
humidity
%
barometer
mb
20260904144205 48 203 3.0 6.0 0.00 0.00 0.00 83 1013.1
20260904143205 47 166 2.0 3.0 0.00 0.00 0.00 86 1013.2
20260904142205 46 203 3.0 5.0 0.00 0.00 0.00 87 1013.2
20260904141225 46 174 4.0 6.0 0.00 0.00 0.00 89 1013.0
20260904140205 45 179 3.0 6.0 0.00 0.00 0.00 89 1012.9
20260904135206 43 200 1.0 3.0 0.00 0.00 0.00 91 1012.9
20260904134226 44 0.0 1.0 0.00 0.00 0.00 90 1012.7
20260904133205 44 201 1.0 3.0 0.00 0.00 0.00 89 1012.7
20260904132205 45 0.0 1.0 0.00 0.00 0.00 88 1012.7
20260904131206 45 208 2.0 3.0 0.00 0.00 0.00 88 1012.6
20260904130205 45 222 2.0 5.0 0.00 0.00 0.00 88 1012.4
20260904125205 46 202 4.0 6.0 0.00 0.00 0.00 87 1012.4
20260904124206 46 194 5.0 8.0 0.00 0.00 0.00 86 1012.3
20260904123206 46 149 5.0 8.0 0.00 0.00 0.00 86 1012.3
20260904122206 46 181 3.0 7.0 0.00 0.00 0.00 87 1012.2
20260904121205 45 199 2.0 4.0 0.00 0.00 0.00 90 1012.3
20260904120225 45 185 1.0 3.0 0.00 0.00 0.00 90 1012.3
20260904115205 45 191 2.0 4.0 0.00 0.00 0.00 90 1012.2
20260904114205 46 196 2.0 3.0 0.00 0.00 0.00 90 1012.1
20260904113225 46 203 2.0 3.0 0.00 0.00 0.00 87 1011.9
20260904112206 48 160 3.0 5.0 0.00 0.00 0.00 84 1011.9
20260904111205 48 209 2.0 3.0 0.00 0.00 0.00 82 1011.7
20260904110226 48 147 2.0 5.0 0.00 0.00 0.00 83 1011.8
20260904105205 48 170 4.0 6.0 0.00 0.00 0.00 84 1011.8
20260904104205 48 191 3.0 6.0 0.00 0.00 0.00 86 1011.8
20260904103205 47 181 3.0 6.0 0.00 0.00 0.00 88 1011.7
20260904102206 48 198 3.0 7.0 0.00 0.00 0.00 86 1011.5
20260904101206 47 186 1.0 3.0 0.00 0.00 0.00 88 1011.5
20260904100206 46 154 1.0 3.0 0.00 0.00 0.00 93 1011.4
20260904095206 46 0.0 0.0 0.00 0.00 0.00 95 1011.6
20260904094206 45 0.0 0.0 0.00 0.00 0.00 95 1011.6
20260904093206 45 0.0 0.0 0.00 0.00 0.00 95 1011.7
20260904092206 46 0.0 0.0 0.00 0.00 0.00 95 1011.6
20260904091206 46 0.0 0.0 0.00 0.00 0.00 94 1011.7
20260904090206 46 157 1.0 2.0 0.00 0.00 0.00 94 1011.6
20260904085205 46 0.0 0.0 0.00 0.00 0.00 94 1011.5
20260904084226 47 0.0 0.0 0.00 0.00 0.00 93 1011.4
20260904083226 47 0.0 0.0 0.00 0.00 0.00 92 1011.4
20260904082205 47 0.0 0.0 0.00 0.00 0.00 91 1011.3
20260904081226 47 0.0 0.0 0.00 0.00 0.00 93 1011.3
20260904080206 48 0.0 0.0 0.00 0.00 0.00 92 1011.3
20260904075206 48 0.0 0.0 0.00 0.00 0.00 92 1011.2
20260904074206 48 0.0 0.0 0.00 0.00 0.00 90 1011.0
20260904073225 48 0.0 0.0 0.00 0.00 0.00 88 1011.0
20260904072206 48 0.0 0.0 0.00 0.00 0.00 89 1011.0
20260904071226 48 0.0 0.0 0.00 0.00 0.00 88 1011.1
20260904070228 48 0.0 0.0 0.00 0.00 0.00 90 1011.1
20260904065206 47 0.0 0.0 0.00 0.00 0.00 89 1011.1
20260904064226 47 0.0 0.0 0.00 0.00 0.00 89 1011.1
20260904063206 48 0.0 0.0 0.00 0.00 0.00 88 1011.0
20260904062206 48 0.0 0.0 0.00 0.00 0.00 87 1011.0
20260904061206 49 209 0.0 2.0 0.00 0.00 0.00 85 1010.9
20260904060206 49 0.0 0.0 0.00 0.00 0.00 87 1010.8
20260904055226 49 0.0 0.0 0.00 0.00 0.00 84 1010.9
20260904054206 49 0.0 0.0 0.00 0.00 0.00 83 1011.0
20260904053206 49 0.0 0.0 0.00 0.00 0.00 82 1011.1
20260904052206 51 0.0 0.0 0.00 0.00 0.00 77 1011.0
20260904051206 52 0.0 0.0 0.00 0.00 0.00 74 1011.0
20260904050206 53 4 1.0 6.0 0.00 0.01 0.00 72 1011.0
20260904045226 53 4 2.0 5.0 0.00 0.01 0.00 72 1010.9
20260904044206 53 2 4.0 8.0 0.00 0.01 0.00 72 1010.9
20260904043206 53 348 1.0 3.0 0.00 0.01 0.00 72 1010.9
20260904042206 54 353 3.0 10.0 0.00 0.01 0.00 71 1010.8
20260904041206 54 28 2.0 8.0 0.00 0.01 0.00 70 1010.8
20260904040206 54 25 1.0 5.0 0.00 0.01 0.00 69 1010.8
20260904035206 55 26 1.0 5.0 0.00 0.02 0.00 68 1010.7
20260904034206 55 9 2.0 5.0 0.00 0.03 0.00 67 1010.6
20260904033206 55 348 2.0 4.0 0.00 0.03 0.00 66 1010.4
20260904032226 55 353 3.0 6.0 0.00 0.04 0.00 65 1010.1
20260904031206 56 8 2.0 6.0 0.00 0.05 0.00 64 1010.0
20260904030206 56 355 2.0 4.0 0.00 0.06 0.00 64 1010.0
20260904025206 56 339 2.0 5.0 0.00 0.07 0.00 63 1009.9
20260904024207 57 354 2.0 5.0 0.00 0.08 0.00 62 1009.7
20260904023206 57 4 3.0 6.0 0.00 0.09 0.00 61 1009.7
20260904022206 57 329 3.0 6.0 0.00 0.10 0.00 60 1009.6
20260904021226 58 351 2.0 6.0 0.00 0.11 0.00 60 1009.5
20260904020206 58 342 2.0 6.0 0.00 0.12 0.00 59 1009.5
20260904015206 59 350 2.0 5.0 0.00 0.12 0.00 57 1009.4
20260904014226 59 357 2.0 5.0 0.00 0.13 0.00 57 1009.3
20260904013210 60 3 3.0 6.0 0.00 0.13 0.00 56 1009.2
20260904012206 60 1 1.0 3.0 0.00 0.14 0.00 55 1009.2
20260904011206 60 0.0 0.0 0.00 0.14 0.00 55 1009.1
20260904010206 60 218 0.0 2.0 0.00 0.14 0.00 57 1009.1
20260904005206 61 0.0 0.0 0.00 0.15 0.00 53 1009.1
20260904004207 62 214 1.0 3.0 0.00 0.15 0.00 53 1009.1
20260904003206 62 207 3.0 5.0 0.00 0.15 0.00 53 1009.1
20260904002226 61 252 1.0 5.0 0.00 0.16 0.00 54 1009.2
20260904001206 60 29 0.0 3.0 0.00 0.16 0.00 56 1009.3
20260904000206 61 358 0.0 3.0 0.00 0.16 0.00 55 1009.3
20260903235206 62 130 0.0 4.0 0.00 0.17 0.00 53 1009.3
20260903234206 61 6 2.0 5.0 0.00 0.17 0.00 54 1009.3
20260903233207 61 176 3.0 6.0 0.00 0.17 0.00 56 1009.4
20260903232206 59 154 0.0 2.0 0.00 0.17 0.00 59 1009.6
20260903231206 59 180 2.0 7.0 0.00 0.17 0.00 59 1009.8
20260903230206 62 177 2.0 5.0 0.00 0.17 0.00 57 1009.8
20260903225207 62 193 5.0 8.0 0.00 0.17 0.00 57 1009.9
20260903224206 61 217 2.0 6.0 0.00 0.17 0.00 58 1010.0
20260903223206 61 192 1.0 4.0 0.00 0.17 0.00 59 1010.1
20260903222209 60 186 2.0 5.0 0.00 0.17 0.00 60 1010.3
20260903221206 59 207 2.0 6.0 0.00 0.17 0.00 61 1010.6
20260903220207 59 189 1.0 4.0 0.00 0.17 0.00 60 1010.7
20260903215208 59 195 2.0 5.0 0.00 0.17 0.00 61 1010.8
20260903214207 58 70 1.0 2.0 0.00 0.17 0.00 60 1010.9
20260903213206 58 5 3.0 6.0 0.00 0.17 0.00 62 1011.0
20260903212247 58 223 0.0 2.0 0.00 0.17 0.00 60 1010.9
20260903211206 58 150 0.0 2.0 0.00 0.17 0.00 61 1011.0
20260903210207 57 323 3.0 6.0 0.00 0.17 0.00 63 1011.0
20260903205207 58 7 1.0 6.0 0.00 0.17 0.00 64 1010.9
20260903204207 58 276 0.0 2.0 0.00 0.17 0.00 64 1011.0
20260903203207 57 221 3.0 5.0 0.00 0.18 0.00 66 1011.3
20260903202209 56 342 1.0 3.0 0.00 0.18 0.00 69 1011.3
20260903201227 56 7 2.0 3.0 0.00 0.18 0.00 69 1011.3
20260903200207 56 276 1.0 4.0 0.00 0.18 0.00 69 1011.3
20260903195227 57 354 1.0 4.0 0.00 0.18 0.00 69 1011.4
20260903194207 56 356 1.0 3.0 0.00 0.18 0.00 70 1011.5
20260903193227 56 263 2.0 5.0 0.00 0.19 0.00 70 1011.6
20260903192207 56 324 2.0 5.0 0.00 0.20 0.00 71 1011.7
20260903191207 57 285 0.0 3.0 0.00 0.21 0.00 71 1011.6
20260903190227 57 266 1.0 3.0 0.00 0.22 0.00 73 1011.6
20260903185207 56 257 1.0 3.0 0.00 0.22 0.00 73 1011.7
20260903184207 56 8 3.0 5.0 0.00 0.22 0.00 75 1011.8
20260903183207 55 86 1.0 2.0 0.00 0.22 0.00 75 1011.9
20260903182207 55 21 0.0 2.0 0.00 0.22 0.00 76 1011.9
20260903181207 55 14 0.0 2.0 0.00 0.22 0.00 76 1011.9
20260903180207 54 0.0 1.0 0.00 0.22 0.00 76 1012.0
20260903175207 54 225 2.0 5.0 0.00 0.22 0.00 76 1012.1
20260903174207 54 260 1.0 4.0 0.00 0.22 0.00 78 1012.2
20260903173207 53 214 4.0 6.0 0.00 0.22 0.00 78 1012.1
20260903172227 53 206 2.0 3.0 0.00 0.22 0.00 79 1012.1
20260903171207 53 0.0 2.0 0.00 0.22 0.00 81 1012.1
20260903170227 52 200 2.0 4.0 0.00 0.22 0.00 82 1012.1
20260903165227 52 189 2.0 5.0 0.00 0.22 0.00 81 1012.1
20260903164207 52 208 3.0 5.0 0.00 0.22 0.00 81 1012.1
20260903163207 52 189 3.0 5.0 0.00 0.22 0.00 83 1012.0
20260903162207 52 179 2.0 6.0 0.00 0.22 0.00 82 1012.0
20260903161207 51 172 1.0 3.0 0.00 0.22 0.00 83 1012.1
20260903160207 51 181 2.0 4.0 0.00 0.22 0.00 83 1012.1
20260903155207 51 149 2.0 5.0 0.00 0.22 0.00 84 1012.3
20260903154207 50 160 2.0 7.0 0.00 0.22 0.00 84 1012.3
20260903153207 50 148 0.0 4.0 0.00 0.22 0.00 86 1012.3
20260903152207 49 0.0 1.0 0.00 0.22 0.00 87 1012.2
20260903151207 48 185 1.0 3.0 0.00 0.22 0.00 88 1012.3
20260903150207 48 161 0.0 3.0 0.00 0.22 0.00 89 1012.2
20260903145207 47 159 0.0 3.0 0.00 0.22 0.00 93 1012.2